Regional Weather Roundup
Issued by NWS Cleveland, OH

Home | Current Version | Previous Version | Graphics & Text | Print | Product List | Glossary On
Versions: 1 2 3 4 5 6 7 8 9 10 11 12 13 14 15 16 17 18 19 20 21 22 23 24 25 26 27 28 29 30 31 32 33 34 35 36 37 38 39 40 41 42 43 44 45 46 47 48 49 50
000
ASUS41 KCLE 281510
RWRCLE
OHIO REGIONAL WEATHER ROUNDUP
NATIONAL WEATHER SERVICE CLEVELAND, OH
1100 AM EDT FRI APR 28 2017

NOTE: "FAIR" INDICATES FEW OR NO CLOUDS BELOW 12,000 FEET WITH NO
SIGNIFICANT WEATHER AND/OR OBSTRUCTIONS TO VISIBILITY.

OHZ001>008-015>018-024>027-034-035-043-044-281600-
   NORTHWEST OHIO

CITY           SKY/WX    TMP DP  RH WIND       PRES   REMARKS
DEFIANCE       MOSUNNY   54  41  61 S10       30.01F
FINDLAY        CLOUDY    56  40  55 SE8       30.01S
TOLEDO EXPRESS MOSUNNY   55  40  56 S8G20     30.02R
TOLEDO EXEC    MOSUNNY   57  42  57 S12       30.03R
LIMA           CLOUDY    52  45  77 S8        30.02F
$$

OHZ009>014-019>023-028>033-038-089-281600-
   NORTHEAST OHIO

CITY           SKY/WX    TMP DP  RH WIND       PRES   REMARKS
CLE-HOPKINS    PTSUNNY   58  41  53 S8        30.06S
CLE-LAKEFRONT  MOSUNNY   57  42  57 S9        30.03S
CUY CO. ARPT   MOSUNNY   59  45  58 SW6       30.05R
LORAIN-ELYRIA  SUNNY     55  40  56 S6        30.04F
ASHTABULA      PTSUNNY   58  45  62 SW14      30.04F
AKRON-CANTON   CLOUDY    58  45  62 S9        30.04F
WOOSTER        MOSUNNY   55  44  66 SW13      30.07R
MANSFIELD      CLOUDY    55  44  66 S9        30.04S
YOUNGSTOWN     MOSUNNY   58  45  62 S9        30.03F
$$

OHZ042-051>053-060>062-070>072-077>081-281600-
  SOUTHWEST OHIO

CITY           SKY/WX    TMP DP  RH WIND       PRES   REMARKS
CINC-COVINGTON PTSUNNY   59  49  69 SE13      29.99F
CINC-LUNKEN    MOSUNNY   60  51  72 E8        30.00F
HAMILTON       CLOUDY    58  49  72 E5        30.02F
DAYTON         PTSUNNY   54  46  74 SE10      30.02F
WRIGHT-PAT AFB CLOUDY    56  47  73 SE8       30.02S
DAYTON GENERAL CLOUDY    56  48  74 SE7       30.01S
WILMINGTON     CLOUDY    57  50  77 SE9       30.00F
$$

OHZ036-037-039>041-045>050-054>059-063>069-073>076-082>088-281600-
  CENTRAL AND SOUTHEAST OHIO

CITY           SKY/WX    TMP DP  RH WIND       PRES   REMARKS
COLUMBUS       CLOUDY    59  47  64 SE10      30.03F
OSU AIRPORT    CLOUDY    57  47  69 SE9       30.02F
BOLTON FIELD   MOSUNNY   57  48  72 SE9       30.02F
RICKENBACK AFB MOSUNNY   59  48  67 SE9       30.02F
NEWARK         MOSUNNY   61  46  57 VRB7      30.04F
MARION         PTSUNNY   55  44  66 S10       30.03F
LANCASTER      MOSUNNY   62  48  60 MISG      30.05S
ZANESVILLE     MOSUNNY   62  47  57 S6        30.05S
NEW PHILLY     NOT AVBL
$$



USA.gov is the U.S. government's official web portal to all federal, state and local government web resources and services.